Location: Unspecified
(0.0000°N, 0.0000°E)
Time: 08:48:04
(UTC+00:00)

Transit 4A - Pass Details

Date: 06 October 2023
Orbit: 864 x 979 km, 66.8° (Epoch: 05 December)

Event Time Altitude Azimuth Distance (km) Brightness Sun altitude
Rises 20:30:36 0° 330° (NNW) 3,557 11.2 -40.4°
Enters shadow 20:33:04 - 325° (NW) 2,657 10.5 -41.0°
Reaches altitude 10° 20:33:13 10° 325° (NW) 2,599 - -41.1°
Maximum altitude 20:39:00 49° 251° (WSW) 1,137 - -42.5°
Drops below altitude 10° 20:44:40 10° 177° (S) 2,538 - -43.9°
Sets 20:47:12 0° 171° (S) 3,466 - -44.5°
